Wind_Speed
36 41 47 53 63 72 75 73 69 68 76 89 99 102 102 100 96 90 84 82 78 76 76 73 70 69 67 65 64 62 60 58 54 49 47 47 49 52
33 37 43 47 55 66 72 74 70 65 68 78 93 100 99 97 95 93 88 85 82 79 77 75 72 69 68 67 65 64 62 59 56 53 50 49 48 50
31 33 39 44 50 60 68 72 70 63 61 69 82 95 96 94 91 90 88 86 85 82 79 77 74 71 69 68 66 64 63 61 57 54 52 51 51 51
28 30 36 41 46 54 63 68 68 64 58 60 72 87 93 91 88 87 86 86 85 84 80 78 76 73 70 68 67 66 63 61 59 56 53 51 51 51
26 28 33 38 42 49 58 64 65 63 59 54 62 77 88 88 85 83 84 85 84 84 82 79 77 75 72 69 67 66 64 62 60 58 57 55 51 49
23 26 30 35 39 45 53 59 61 59 58 53 55 67 81 84 82 79 80 85 85 83 82 80 78 75 74 71 68 66 65 63 61 59 58 58 56 52
20 24 28 33 37 41 48 53 56 56 55 53 53 61 76 83 82 78 76 81 83 82 81 80 78 75 73 71 70 67 65 64 62 60 59 58 57 54
17 22 27 31 34 38 43 48 50 51 50 50 52 60 74 87 87 81 75 76 79 81 81 80 79 76 72 70 69 68 66 64 63 61 59 58 57 55
14 21 26 29 32 36 40 43 44 44 44 45 49 57 74 89 91 83 78 77 78 80 80 79 79 76 72 70 68 67 67 66 64 63 62 59 57 56
13 20 25 28 31 34 36 38 39 38 37 38 43 52 71 90 97 91 82 78 77 79 81 78 77 75 72 70 68 67 66 67 66 66 64 62 59 57
13 20 24 28 30 32 33 34 34 33 32 33 36 46 64 87 99 99 90 80 77 79 80 79 76 74 71 69 67 66 65 66 67 67 66 63 61 58
12 18 24 28 30 31 30 30 30 29 28 29 32 39 53 76 96 101 96 87 79 78 78 77 74 71 68 67 65 63 62 62 63 64 64 63 61 58
10 16 22 27 30 30 29 28 27 26 25 25 28 34 45 60 79 91 95 89 82 78 76 74 72 69 66 64 63 61 59 58 58 58 59 59 58 57
7 13 20 26 29 30 29 28 27 25 24 23 25 30 38 49 60 71 79 81 80 77 73 71 68 64 62 61 60 59 57 56 55 54 53 53 53 53
3 10 18 24 28 29 29 28 27 25 24 23 24 28 34 43 50 57 62 66 71 73 71 68 65 60 58 57 57 56 55 55 54 52 51 50 50 50
0 7 15 22 27 28 29 28 27 25 24 23 23 26 30 37 44 50 56 61 64 67 67 66 64 60 57 55 55 54 52 52 52 52 52 52 52 53
5 3 12 20 25 28 28 28 27 26 25 24 23 25 28 33 39 45 51 56 60 63 64 65 64 62 59 57 56 55 53 52 51 52 53 54 55 55
11 3 7 16 24 28 28 29 28 27 26 25 24 25 27 30 35 40 47 53 58 60 62 63 64 63 62 61 59 56 54 54 55 56 57 57 58 58
16 9 2 11 20 26 29 29 29 28 28 27 27 27 28 29 32 36 42 48 55 59 60 61 62 62 61 60 59 59 57 58 59 60 60 61 61 61
25 17 8 3 14 23 28 30 30 30 29 30 29 28 28 29 31 33 38 43 50 56 59 61 62 63 63 61 60 60 61 61 61 62 63 62 61 61
38 27 17 7 5 17 25 30 31 31 31 31 32 31 30 30 31 31 34 38 44 51 56 60 62 64 64 64 62 61 61 62 61 60 60 59 58 57
46 40 29 18 7 7 18 27 31 33 33 33 34 34 34 33 33 33 34 36 40 46 50 54 58 62 63 62 61 60 58 58 59 58 56 54 53 52
44 42 39 31 20 7 7 19 28 33 35 35 35 35 36 36 36 36 37 37 39 43 47 49 51 54 57 59 59 58 56 54 54 53 52 50 47 46
Wind_Direction
251 240 232 227 223 219 217 216 218 223 224 221 217 215 215 216 218 219 219 219 219 220 221 222 221 219 219 220 221 222 224 226 227 229 230 231 231 231
251 241 231 225 221 217 215 214 215 219 223 222 219 215 214 215 217 218 218 218 218 219 221 223 223 221 219 220 221 223 224 225 226 228 231 233 233 233
248 240 230 224 219 215 213 213 214 216 219 221 220 215 212 212 213 216 217 218 218 218 220 222 223 223 221 220 221 223 224 225 226 227 229 232 233 234
243 237 229 222 217 213 211 211 212 213 215 218 218 216 211 209 210 213 216 217 218 217 219 221 222 223 222 221 221 223 224 225 227 228 229 231 232 234
237 233 226 219 215 211 209 209 211 213 213 215 216 215 211 208 207 210 214 217 218 218 219 220 221 223 223 223 222 223 223 225 227 230 231 231 231 231
229 227 222 216 212 208 206 207 210 212 213 215 216 213 210 206 204 205 209 214 217 218 219 220 221 222 224 224 224 224 224 224 227 229 231 233 236 236
222 221 217 212 208 205 203 205 208 211 214 217 217 212 208 203 199 198 202 208 212 215 217 219 221 222 224 225 225 225 224 225 226 228 231 233 237 238
217 215 211 206 204 201 200 202 205 210 214 219 219 214 207 202 197 196 199 203 206 210 213 216 218 220 222 223 224 225 225 225 226 229 231 233 236 239
215 209 204 200 199 198 197 199 203 209 215 220 222 217 208 203 198 195 195 198 201 206 209 212 215 217 219 220 221 222 223 224 226 229 232 234 235 237
212 205 199 195 194 194 195 197 202 208 214 220 223 218 210 204 200 195 192 192 195 201 205 208 211 213 215 216 217 219 221 223 225 227 230 233 236 239
207 200 195 192 191 191 192 196 200 206 212 217 220 216 211 205 203 199 195 193 195 198 203 206 208 211 213 214 215 217 219 221 223 226 229 232 235 238
205 197 193 190 190 189 191 194 197 202 208 213 215 213 210 207 204 204 201 198 198 199 202 204 206 208 209 211 211 213 216 218 221 223 227 231 234 237
205 196 192 191 190 189 190 192 195 198 204 209 208 208 207 206 206 207 208 206 203 203 203 204 205 206 208 209 210 211 214 217 219 222 224 228 232 235
205 196 194 192 191 190 190 192 193 195 199 202 201 200 200 201 204 207 210 212 210 207 207 207 207 208 211 212 213 214 216 218 220 223 226 228 231 234
209 197 194 194 193 193 192 192 193 194 195 196 194 193 194 195 197 202 206 209 211 211 211 210 210 210 212 216 216 217 219 220 221 224 226 228 231 233
36 199 196 195 195 195 194 193 193 193 192 192 190 190 191 191 193 195 199 202 205 208 209 209 208 208 210 214 217 218 220 223 226 229 230 231 232 233
34 192 198 197 197 197 197 196 194 193 191 189 187 187 188 190 191 190 192 196 199 201 203 204 205 205 207 211 216 217 218 221 225 228 230 230 229 229
31 51 195 199 199 199 199 199 197 194 191 188 187 186 186 188 191 191 191 192 195 197 200 202 204 206 208 210 213 216 217 218 220 223 225 226 227 229
33 38 121 197 201 201 202 201 199 197 192 188 186 185 185 187 190 192 193 193 194 196 199 201 203 205 206 208 212 214 216 218 221 224 228 230 231 233
35 36 43 171 200 203 204 204 202 200 196 192 189 186 186 186 188 191 193 194 195 196 197 199 200 201 203 206 211 214 216 219 223 226 228 230 232 234
36 36 38 48 186 203 205 206 205 204 202 198 194 191 189 188 188 188 191 193 194 195 196 198 199 200 203 207 212 216 220 222 224 226 228 231 233 236
37 38 37 38 48 194 206 208 208 208 206 205 201 198 195 192 191 190 190 191 193 193 195 197 199 201 204 207 212 215 220 224 226 229 232 234 236 237
36 37 38 38 38 49 200 209 211 211 210 209 208 205 201 198 196 195 193 192 193 194 194 196 199 202 206 209 212 213 216 220 223 226 228 230 232 233
Height
5347 5351 5358 5366 5377 5391 5407 5422 5435 5444 5456 5471 5487 5503 5523 5542 5559 5575 5590 5605 5619 5631 5643 5654 5666 5677 5689 5699 5709 5719 5727 5735 5743 5750 5757 5763 5769 5775
5334 5337 5344 5352 5361 5374 5389 5406 5420 5431 5441 5454 5467 5487 5506 5525 5542 5559 5575 5590 5605 5618 5630 5642 5653 5665 5677 5688 5698 5708 5716 5724 5733 5740 5747 5753 5759 5765
5323 5326 5331 5339 5348 5360 5375 5391 5407 5419 5430 5439 5451 5469 5490 5510 5528 5545 5561 5576 5590 5604 5617 5629 5641 5653 5665 5677 5688 5698 5707 5715 5723 5730 5736 5742 5748 5755
5312 5315 5320 5328 5337 5348 5362 5378 5393 5408 5419 5426 5435 5453 5474 5494 5513 5531 5546 5562 5576 5590 5603 5615 5628 5640 5653 5665 5676 5687 5697 5705 5713 5721 5727 5731 5737 5744
5303 5307 5312 5319 5328 5338 5351 5367 5382 5396 5408 5416 5425 5439 5459 5480 5500 5518 5533 5548 5562 5577 5590 5603 5615 5628 5640 5653 5665 5676 5688 5697 5705 5712 5717 5722 5727 5733
5296 5300 5305 5312 5321 5331 5343 5357 5372 5385 5398 5407 5416 5428 5446 5467 5487 5505 5519 5533 5548 5562 5577 5590 5602 5615 5628 5641 5654 5665 5676 5685 5693 5701 5707 5713 5718 5723
5290 5294 5299 5306 5315 5325 5337 5350 5363 5376 5387 5397 5406 5417 5434 5454 5474 5490 5503 5517 5533 5548 5562 5577 5591 5605 5615 5628 5641 5653 5664 5673 5682 5690 5696 5702 5708 5713
5287 5291 5296 5303 5311 5320 5331 5343 5356 5367 5377 5386 5395 5406 5420 5439 5458 5473 5489 5503 5519 5536 5550 5563 5577 5590 5603 5616 5628 5641 5652 5662 5671 5679 5686 5692 5698 5704
5285 5288 5293 5300 5308 5317 5327 5338 5349 5360 5369 5377 5384 5394 5407 5426 5445 5462 5475 5488 5505 5520 5536 5550 5564 5578 5591 5603 5615 5627 5639 5649 5659 5667 5674 5681 5688 5694
5284 5287 5292 5299 5306 5315 5325 5335 5344 5354 5362 5369 5376 5383 5394 5411 5430 5446 5460 5475 5490 5505 5522 5538 5552 5566 5579 5591 5602 5614 5626 5637 5646 5655 5662 5669 5677 5684
5284 5287 5292 5299 5306 5314 5323 5332 5341 5349 5355 5362 5368 5374 5382 5396 5412 5429 5445 5461 5477 5493 5510 5526 5540 5553 5566 5578 5590 5602 5613 5624 5634 5643 5651 5658 5666 5673
5284 5288 5293 5299 5306 5313 5322 5330 5338 5345 5351 5357 5362 5367 5374 5384 5399 5414 5430 5448 5466 5483 5499 5515 5529 5542 5553 5565 5578 5589 5600 5611 5621 5630 5639 5647 5655 5662
5285 5289 5294 5300 5306 5314 5321 5329 5336 5342 5348 5353 5358 5363 5369 5378 5391 5405 5420 5437 5456 5474 5490 5504 5519 5532 5545 5556 5567 5579 5590 5601 5610 5619 5628 5637 5644 5651
5287 5290 5295 5300 5307 5314 5321 5328 5334 5341 5346 5351 5355 5360 5366 5375 5386 5399 5413 5429 5447 5465 5481 5496 5512 5525 5537 5549 5560 5571 5581 5592 5602 5611 5620 5627 5634 5640
5288 5291 5295 5301 5308 5314 5321 5327 5334 5340 5345 5350 5354 5359 5365 5374 5384 5396 5409 5424 5440 5457 5473 5488 5502 5515 5529 5542 5553 5564 5574 5583 5592 5601 5609 5617 5624 5630
5290 5292 5296 5301 5308 5314 5321 5327 5333 5339 5344 5350 5354 5360 5366 5373 5382 5392 5405 5419 5434 5449 5464 5478 5491 5506 5520 5531 5543 5554 5564 5573 5582 5590 5598 5605 5611 5618
5293 5294 5297 5302 5307 5314 5320 5327 5333 5338 5344 5350 5355 5360 5366 5373 5381 5390 5401 5414 5427 5441 5455 5468 5481 5495 5509 5521 5532 5543 5554 5563 5572 5580 5587 5593 5599 5606
5296 5296 5298 5302 5307 5313 5319 5326 5332 5338 5343 5349 5355 5360 5367 5373 5381 5389 5398 5409 5421 5434 5447 5461 5474 5488 5500 5511 5522 5532 5543 5552 5560 5567 5574 5580 5587 5593
5300 5299 5300 5302 5306 5312 5318 5324 5331 5337 5343 5349 5354 5360 5366 5373 5380 5387 5395 5405 5415 5427 5440 5453 5466 5480 5492 5503 5511 5521 5532 5540 5547 5553 5560 5567 5574 5581
5305 5304 5303 5304 5306 5311 5317 5323 5329 5335 5342 5348 5354 5360 5366 5372 5379 5386 5393 5401 5411 5421 5433 5445 5458 5470 5483 5494 5503 5511 5519 5528 5535 5542 5548 5556 5563 5570
5314 5309 5307 5307 5308 5311 5316 5321 5327 5334 5340 5346 5352 5358 5365 5371 5378 5384 5391 5399 5407 5416 5426 5437 5448 5461 5473 5483 5492 5500 5508 5515 5523 5530 5537 5545 5553 5561
5325 5319 5314 5311 5311 5312 5315 5320 5326 5332 5338 5344 5350 5357 5363 5369 5376 5383 5390 5397 5404 5412 5420 5430 5441 5451 5461 5471 5481 5489 5496 5504 5512 5519 5527 5536 5543 5551
5336 5330 5324 5319 5315 5314 5316 5319 5324 5329 5335 5341 5347 5354 5360 5367 5373 5380 5387 5394 5401 5408 5416 5425 5434 5443 5452 5461 5469 5477 5485 5493 5501 5509 5517 5525 5533 5540